RADUGA 12 1 13974U 83028A 21015.91678817 -.00000134 00000-0 00000-0 0 9990 2 13974 12.1652 323.5151 0003917 44.7727 155.0542 1.00294765149543 SL-12 R/B(2) 1 13983U 83028F 21016.26949382 -.00000368 00000-0 00000-0 0 9996 2 13983 12.1996 323.5696 0023991 164.2559 207.8249 1.00051251138025